Marietta, GA

5:00 AM EDT on March 29, 2017 (GMT -0400)
Dobbins Air Force Base

Weather History for KMGE - January, 2013

Change the Weather History Date:

Thursday, January 31, 2013

  Actual Average Record
Temperature  
Mean Temperature 40 °F -  
Max Temperature 47 °F 50 °F 75 °F (2002)
Min Temperature 32 °F 32 °F 18 °F (2014)
Degree Days  
Heating Degree Days 26    
Moisture  
Dew Point 26 °F    
Average Humidity 59    
Maximum Humidity 74    
Minimum Humidity 39    
Precipitation  
Precipitation 0.00 in - - ()
Sea Level Pressure  
Sea Level Pressure 30.05 in    
Wind  
Wind Speed 20 mph (West)    
Max Wind Speed 29 mph    
Max Gust Speed 40 mph    
Visibility 10 miles    
Events      
Averages and records for this station are not official NWS values.
T = Trace of Precipitation, MM = Missing Value Source: NWS Daily Summary

Daily Weather History Graph

Daily Weather History Graph

Search for Another Location

Airport or City:

Trip Planner

Search our weather history database for the weather conditions in past years. The results will help you decide how hot, cold, wet, or windy it might be!

Date:

Astronomy

Jan. 31, 2013 Rise Set
Actual Time 7:35 AM EST 6:08 PM EST
Civil Twilight 7:09 AM EST 6:34 PM EST
Nautical Twilight 6:39 AM EST 7:04 PM EST
Astronomical Twilight 6:09 AM EST 7:33 PM EST
Moon 10:52 PM EST (1/31) 9:50 AM EST (1/31)
Length of Visible Light 11h 25m
Length of Day
10h 32m
Waning Gibbous, 80% of the Moon is Illuminated
Jan 31
Waning Gibbous
Feb 3
Last Quarter
Feb 10
New
Feb 17
First Quarter
Feb 25
Full

Hourly Weather History & Observations

Time (EST) Temp. Windchill Dew Point Humidity Pressure Visibility Wind Dir Wind Speed Gust Speed Precip Events Conditions
12:55 AM 41.2 °F 30.5 °F 32.2 °F 70% 29.85 in 10.0 mi West 27.6 mph 40.3 mph N/A   Overcast
1:49 AM 39.2 °F 27.6 °F 30.2 °F 70% 29.88 in 10.0 mi West 28.8 mph 39.1 mph N/A   Overcast
1:50 AM 39.2 °F 27.6 °F 30.2 °F 70% 29.89 in 10.0 mi WNW 28.8 mph 39.1 mph N/A   Overcast
1:51 AM 39.2 °F 28.3 °F 30.2 °F 70% 29.89 in 10.0 mi WNW 25.3 mph 39.1 mph N/A   Overcast
1:55 AM 38.7 °F 27.5 °F 29.8 °F 71% 29.89 in 10.0 mi WNW 25.3 mph 39.1 mph N/A   Overcast
2:00 AM 39.2 °F 28.5 °F 28.4 °F 65% 29.89 in 10.0 mi WNW 24.2 mph 36.8 mph N/A   Overcast
2:55 AM 37.2 °F 27.6 °F 28.9 °F 72% 29.93 in 10.0 mi West 17.3 mph - N/A   Mostly Cloudy
3:55 AM 36.3 °F 26.8 °F 27.5 °F 70% 29.95 in 10.0 mi West 16.1 mph 24.2 mph N/A   Overcast
4:55 AM 35.8 °F 26.9 °F 27.3 °F 71% 29.98 in 10.0 mi West 13.8 mph - N/A   Overcast
5:55 AM 34.9 °F 24.6 °F 26.2 °F 71% 30.01 in 10.0 mi West 17.3 mph - N/A   Overcast
6:55 AM 33.6 °F 23.7 °F 25.0 °F 71% 30.03 in 10.0 mi West 15.0 mph - N/A   Partly Cloudy
7:55 AM 32.9 °F 23.2 °F 25.3 °F 74% 30.05 in 10.0 mi West 13.8 mph - N/A   Partly Cloudy
8:55 AM 34.9 °F 25.3 °F 25.5 °F 69% 30.07 in 10.0 mi West 15.0 mph 24.2 mph N/A   Partly Cloudy
9:55 AM 37.0 °F 27.4 °F 26.2 °F 65% 30.09 in 10.0 mi West 17.3 mph 26.5 mph N/A   Partly Cloudy
10:55 AM 39.6 °F 30.6 °F 26.1 °F 58% 30.11 in 10.0 mi West 17.3 mph - N/A   Partly Cloudy
11:55 AM 42.1 °F 34.2 °F 25.7 °F 52% 30.13 in 10.0 mi WSW 16.1 mph 26.5 mph N/A   Partly Cloudy
12:55 PM 44.4 °F 36.1 °F 25.2 °F 47% 30.12 in 10.0 mi West 20.7 mph 25.3 mph N/A   Partly Cloudy
1:55 PM 46.0 °F 39.0 °F 24.4 °F 43% 30.12 in 10.0 mi West 17.3 mph 24.2 mph N/A   Partly Cloudy
2:55 PM 46.2 °F 40.8 °F 23.2 °F 40% 30.12 in 10.0 mi NW 11.5 mph 27.6 mph N/A   Partly Cloudy
3:55 PM 47.5 °F - 23.5 °F 39% 30.12 in 10.0 mi West 18.4 mph 23.0 mph N/A   Partly Cloudy
4:55 PM 46.9 °F - 22.8 °F 39% 30.12 in 10.0 mi West 16.1 mph - N/A   Partly Cloudy
5:55 PM 44.6 °F 38.4 °F 22.3 °F 41% 30.12 in 10.0 mi West 12.7 mph - N/A   Partly Cloudy
6:55 PM 41.4 °F 36.8 °F 23.5 °F 49% 30.14 in 10.0 mi West 6.9 mph - N/A   Clear
7:55 PM 40.5 °F 38.4 °F 24.6 °F 53% 30.15 in 10.0 mi SSW 3.5 mph - N/A   Clear
8:55 PM 40.8 °F 36.9 °F 24.4 °F 52% 30.16 in 10.0 mi WSW 5.8 mph - N/A   Clear
9:55 PM 40.5 °F 35.8 °F 24.6 °F 53% 30.17 in 10.0 mi SW 6.9 mph - N/A   Clear
10:55 PM 40.6 °F 34.3 °F 25.3 °F 54% 30.17 in 10.0 mi SW 10.4 mph - N/A   Clear
11:55 PM 40.5 °F 34.1 °F 25.7 °F 56% 30.16 in 10.0 mi SW 10.4 mph - N/A   Clear